Weather History for Clinton, IA

Change the Weather History Date:

Monday, May 5, 2014

  Actual Average Record
Temperature  
Mean Temperature 54 °F -  
Max Temperature 64 °F 70 °F 92 °F (1949)
Min Temperature 44 °F 48 °F 32 °F (2005)
Degree Days  
Heating Degree Days 11    
Growing Degree Days 4 (Base 50)    
Moisture  
Dew Point 33 °F    
Average Humidity 47    
Maximum Humidity 62    
Minimum Humidity 34    
Precipitation  
Precipitation 0.00 in - - ()
Sea Level Pressure  
Sea Level Pressure 29.95 in    
Wind  
Wind Speed 17 mph (East)    
Max Wind Speed 25 mph    
Max Gust Speed 33 mph    
Visibility 10 miles    
Events      
Averages and records for this station are not official NWS values.
T = Trace of Precipitation, MM = Missing Value Source: NWS Daily Summary

Daily Weather History Graph

Daily Weather History Graph

Search for Another Location

Airport:

Trip Planner

Search our weather history database for the weather conditions in past years. The results will help you decide how hot, cold, wet, or windy it might be!

Date:

Astronomy

May. 05, 2014 Rise Set
Actual Time 5:52 AM CDT 8:04 PM CDT
Civil Twilight 5:21 AM CDT 8:35 PM CDT
Nautical Twilight 4:43 AM CDT 9:13 PM CDT
Astronomical Twilight 4:02 AM CDT 9:54 PM CDT
Moon 11:12 AM CDT (5/5) 12:48 AM CDT (5/5)
Length of Visible Light 15h 13m
Length of Day
14h 11m
Waxing Crescent, 37% of the Moon is Illuminated
May 5
Waxing Crescent
May 6
First Quarter
May 14
Full
May 21
Last Quarter
May 28
New

Hourly Weather History & Observations

Time (CDT) Temp. Windchill Dew Point Humidity Pressure Visibility Wind Dir Wind Speed Gust Speed Precip Events Conditions
12:15 AM 48.2 °F - 28.4 °F 46% 30.02 in 10.0 mi SE 18.4 mph 23.0 mph N/A   Clear
12:35 AM 48.2 °F - 28.4 °F 46% 30.03 in 10.0 mi ESE 17.3 mph - N/A   Clear
12:55 AM 48.2 °F - 26.6 °F 43% 30.00 in 10.0 mi ESE 18.4 mph 27.6 mph N/A   Clear
1:15 AM 48.2 °F - 26.6 °F 43% 29.95 in 10.0 mi ESE 19.6 mph 26.5 mph N/A   Clear
1:35 AM 48.2 °F - 26.6 °F 43% 29.99 in 10.0 mi East 13.8 mph - N/A   Clear
1:55 AM 46.4 °F 41.1 °F 26.6 °F 46% 29.99 in 10.0 mi East 11.5 mph - N/A   Clear
2:15 AM 46.4 °F 39.2 °F 26.6 °F 46% 29.95 in 10.0 mi ESE 18.4 mph - N/A   Clear
2:35 AM 46.4 °F 39.5 °F 26.6 °F 46% 29.95 in 10.0 mi ESE 17.3 mph - N/A   Scattered Clouds
2:55 AM 46.4 °F 38.5 °F 26.6 °F 46% 29.91 in 10.0 mi SE 21.9 mph 26.5 mph N/A   Scattered Clouds
3:15 AM 46.4 °F 40.7 °F 26.6 °F 46% 29.95 in 10.0 mi East 12.7 mph - N/A   Scattered Clouds
3:35 AM 46.4 °F 41.5 °F 26.6 °F 46% 29.97 in 10.0 mi ENE 10.4 mph - N/A   Mostly Cloudy
3:55 AM 46.4 °F 41.5 °F 28.4 °F 50% 29.96 in 10.0 mi ENE 10.4 mph - N/A   Mostly Cloudy
4:15 AM 46.4 °F 40.7 °F 28.4 °F 50% 29.95 in 10.0 mi ENE 12.7 mph - N/A   Mostly Cloudy
4:35 AM 46.4 °F 40.7 °F 28.4 °F 50% 29.94 in 10.0 mi East 12.7 mph - N/A   Overcast
4:55 AM 46.4 °F 39.8 °F 28.4 °F 50% 29.95 in 10.0 mi East 16.1 mph - N/A   Mostly Cloudy
5:15 AM 46.4 °F 40.1 °F 28.4 °F 50% 29.96 in 10.0 mi ENE 15.0 mph - N/A   Mostly Cloudy
5:35 AM 44.6 °F 38.1 °F 28.4 °F 53% 29.96 in 10.0 mi East 13.8 mph - N/A   Mostly Cloudy
5:55 AM 44.6 °F 37.4 °F 30.2 °F 57% 29.96 in 10.0 mi East 16.1 mph - N/A   Mostly Cloudy
6:15 AM 44.6 °F 38.1 °F 30.2 °F 57% 29.97 in 5.0 mi East 13.8 mph - N/A   Scattered Clouds
6:35 AM 44.6 °F 37.4 °F 30.2 °F 57% 29.98 in 10.0 mi ENE 16.1 mph - N/A   Scattered Clouds
6:55 AM 44.6 °F 37.4 °F 32.0 °F 61% 29.97 in 10.0 mi East 16.1 mph - N/A   Partly Cloudy
7:15 AM 46.4 °F 39.0 °F 32.0 °F 57% 29.98 in 10.0 mi ENE 19.6 mph - N/A   Partly Cloudy
7:35 AM 46.4 °F 39.0 °F 33.8 °F 62% 29.96 in 10.0 mi East 19.6 mph 23.0 mph N/A   Partly Cloudy
7:55 AM 48.2 °F - 33.8 °F 58% 29.92 in 10.0 mi ESE 24.2 mph 27.6 mph N/A   Clear
8:15 AM 48.2 °F - 33.8 °F 58% 29.92 in 10.0 mi East 24.2 mph 27.6 mph N/A   Clear
8:35 AM 50.0 °F - 33.8 °F 54% 29.94 in 10.0 mi East 19.6 mph 28.8 mph N/A   Clear
8:55 AM 51.8 °F - 33.8 °F 50% 29.94 in 10.0 mi East 19.6 mph - N/A   Clear
9:15 AM 51.8 °F - 33.8 °F 50% 29.95 in 10.0 mi East 19.6 mph 24.2 mph N/A   Clear
9:35 AM 53.6 °F - 33.8 °F 47% 29.96 in 10.0 mi ENE 21.9 mph - N/A   Clear
9:55 AM 55.4 °F - 35.6 °F 47% 29.96 in 10.0 mi ENE 24.2 mph - N/A   Clear
10:15 AM 55.4 °F - 35.6 °F 47% 29.96 in 10.0 mi East 20.7 mph 27.6 mph N/A   Clear
10:35 AM 55.4 °F - 35.6 °F 47% 29.95 in 10.0 mi ENE 21.9 mph 27.6 mph N/A   Clear
10:55 AM 57.2 °F - 35.6 °F 44% 29.94 in 10.0 mi East 23.0 mph - N/A   Clear
11:15 AM 59.0 °F - 35.6 °F 42% 29.95 in 10.0 mi East 18.4 mph 26.5 mph N/A   Clear
11:35 AM 60.8 °F - 35.6 °F 39% 29.95 in 10.0 mi ENE 17.3 mph 25.3 mph N/A   Clear
11:55 AM 60.8 °F - 37.4 °F 42% 29.95 in 10.0 mi East 20.7 mph 26.5 mph N/A   Clear
12:15 PM 60.8 °F - 39.2 °F 45% 29.95 in 10.0 mi ENE 18.4 mph - N/A   Clear
12:35 PM 60.8 °F - 37.4 °F 42% 29.94 in 10.0 mi ENE 18.4 mph 24.2 mph N/A   Clear
1:15 PM 62.6 °F - 35.6 °F 37% 29.92 in 10.0 mi East 19.6 mph 26.5 mph N/A   Clear
1:35 PM 62.6 °F - 37.4 °F 39% 29.91 in 10.0 mi ENE 20.7 mph 26.5 mph N/A   Clear
1:55 PM 64.4 °F - 37.4 °F 37% 29.92 in 10.0 mi ENE 18.4 mph 29.9 mph N/A   Clear
2:15 PM 64.4 °F - 35.6 °F 34% 29.92 in 10.0 mi East 23.0 mph 33.4 mph N/A   Clear
2:35 PM 64.4 °F - 35.6 °F 34% 29.91 in 10.0 mi ENE 25.3 mph 28.8 mph N/A   Clear
2:55 PM 64.4 °F - 35.6 °F 34% 29.90 in 10.0 mi East 24.2 mph 28.8 mph N/A   Clear
3:15 PM 64.4 °F - 35.6 °F 34% 29.91 in 10.0 mi ENE 19.6 mph 25.3 mph N/A   Clear
3:35 PM 64.4 °F - 35.6 °F 34% 29.91 in 10.0 mi East 19.6 mph 27.6 mph N/A   Clear
3:55 PM 64.4 °F - 35.6 °F 34% 29.90 in 10.0 mi East 19.6 mph 24.2 mph N/A   Clear
4:15 PM 64.4 °F - 35.6 °F 34% 29.91 in 10.0 mi East 19.6 mph - N/A   Clear
4:35 PM 62.6 °F - 35.6 °F 37% 29.91 in 10.0 mi East 18.4 mph - N/A   Clear
4:55 PM 62.6 °F - 35.6 °F 37% 29.91 in 10.0 mi ENE 17.3 mph - N/A   Clear
5:15 PM 62.6 °F - 35.6 °F 37% 29.90 in 10.0 mi East 19.6 mph 24.2 mph N/A   Clear
5:35 PM 62.6 °F - 35.6 °F 37% 29.91 in 10.0 mi East 18.4 mph - N/A   Clear
5:55 PM 62.6 °F - 35.6 °F 37% 29.91 in 10.0 mi East 17.3 mph - N/A   Clear
6:15 PM 60.8 °F - 35.6 °F 39% 29.93 in 10.0 mi East 13.8 mph - N/A   Clear
6:35 PM 60.8 °F - 35.6 °F 39% 29.93 in 10.0 mi East 13.8 mph - N/A   Clear
6:55 PM 59.0 °F - 35.6 °F 42% 29.94 in 10.0 mi ENE 16.1 mph - N/A   Clear
7:15 PM 57.2 °F - 35.6 °F 44% 29.94 in 10.0 mi East 16.1 mph - N/A   Clear
7:35 PM 55.4 °F - 33.8 °F 44% 29.94 in 10.0 mi ENE 13.8 mph - N/A   Clear
7:55 PM 55.4 °F - 33.8 °F 44% 29.94 in 10.0 mi East 12.7 mph - N/A   Clear
8:15 PM 53.6 °F - 33.8 °F 47% 29.95 in 10.0 mi ENE 10.4 mph - N/A   Clear
8:35 PM 53.6 °F - 33.8 °F 47% 29.95 in 10.0 mi ENE 11.5 mph - N/A   Clear
8:55 PM 53.6 °F - 33.8 °F 47% 29.95 in 10.0 mi ENE 15.0 mph - N/A   Clear
9:15 PM 51.8 °F - 33.8 °F 50% 29.96 in 10.0 mi ENE 13.8 mph - N/A   Clear
9:35 PM 51.8 °F - 33.8 °F 50% 29.96 in 10.0 mi East 15.0 mph - N/A   Clear
9:55 PM 50.0 °F - 33.8 °F 54% 29.97 in 10.0 mi East 12.7 mph - N/A   Clear
10:15 PM 48.2 °F - 33.8 °F 58% 29.98 in 10.0 mi East 10.4 mph - N/A   Clear
10:35 PM 48.2 °F - 33.8 °F 58% 29.97 in 10.0 mi East 11.5 mph - N/A   Clear
10:55 PM 48.2 °F - 33.8 °F 58% 29.98 in 10.0 mi East 10.4 mph - N/A   Clear
11:15 PM 46.4 °F 41.1 °F 33.8 °F 62% 29.98 in 10.0 mi ENE 11.5 mph - N/A   Clear
11:35 PM 46.4 °F 40.7 °F 33.8 °F 62% 29.96 in 10.0 mi ENE 12.7 mph - N/A   Clear
11:55 PM 46.4 °F 40.7 °F 33.8 °F 62% 29.97 in 10.0 mi ENE 12.7 mph - N/A   Clear